Location: Gaast
(52.9002°N, 5.8891°E)
Time: 13:47:46
(UTC+00:00)

ACS3 Solar Sail - Pass Details

Date: 27 January 2026
Orbit: 898 x 968 km, 97.2° (Epoch: 16 February)

Event Time Altitude Azimuth Distance (km) Brightness Sun altitude
Rises 02:08:21 0° 13° (NNE) 3,622 5.3 -46.3°
Reaches altitude 10° 02:10:49 10° 14° (NNE) 2,662 4.5 -46.0°
Enters shadow 02:11:02 11° 14° (NNE) 2,580 4.4 -46.0°
